Vorticity
6 -1 2 4 0 9 0 6 1 1 5 6 5 3 3 3 4 4 4 3 4 4 6 6 5 3 4 4 4 2 2 5 7 8 8 7 6 6 7 10 9 5 8
5 7 13 1 4 3 6 5 4 -0 -1 -0 1 2 2 3 4 3 3 4 4 4 4 5 4 4 7 4 2 1 3 8 8 10 7 6 4 8 11 8 7 9 9
12 7 6 22 1 7 6 10 6 5 4 4 4 3 3 4 4 4 4 3 4 4 5 5 4 5 5 3 2 0 8 10 12 8 4 4 8 9 10 9 11 8 10
6 6 11 9 20 3 6 8 4 5 4 4 4 4 4 4 4 4 4 4 4 4 4 5 5 6 5 3 3 6 12 13 8 5 5 9 13 10 9 5 8 12 8
14 10 4 0 4 13 14 0 5 7 11 8 7 5 5 5 5 5 4 4 5 6 6 6 6 7 5 2 -7 13 6 9 4 8 8 12 11 9 8 11 11 13 3
12 8 11 22 16 14 15 10 13 19 11 -4 -6 -6 -2 3 5 6 7 7 6 5 7 5 3 3 -2 -3 15 13 11 6 8 6 11 11 9 9 10 11 14 3 3
27 11 19 6 9 11 10 5 3 4 3 4 7 10 10 10 9 7 6 5 5 6 7 6 2 2 6 18 15 8 5 4 7 10 12 11 10 10 8 14 5 5 4
10 15 -3 4 1 1 -4 6 19 17 7 8 8 6 5 4 5 6 6 3 7 5 4 4 6 19 15 11 4 6 4 8 11 12 11 10 8 10 15 4 4 4 7
5 11 16 5 2 3 8 12 6 0 9 18 11 7 8 8 6 4 5 8 8 6 2 15 16 11 9 4 8 6 9 10 11 11 12 10 10 18 2 6 8 7 3
13 12 9 14 11 7 2 1 5 7 3 3 7 10 11 11 10 9 9 8 11 16 13 12 7 8 4 5 6 11 12 11 12 13 9 10 17 4 4 8 5 4 9
7 6 11 14 14 14 10 7 3 4 6 10 8 8 9 10 11 12 13 12 10 9 10 8 7 7 2 9 14 14 14 13 12 10 10 17 7 3 8 6 5 8 7
10 14 14 14 17 17 16 10 12 8 8 4 2 10 9 11 9 8 8 9 9 9 11 8 4 4 10 16 12 9 10 12 12 10 16 4 6 8 7 7 9 5 8
22 19 16 13 10 14 17 15 16 8 9 15 10 10 5 8 4 1 6 9 10 9 7 6 5 12 13 10 9 11 14 13 11 15 5 4 8 9 6 9 5 9 16
24 12 19 13 8 16 15 8 4 10 11 18 15 12 19 20 14 11 9 12 9 3 7 3 11 11 14 9 14 14 13 10 13 8 5 8 9 6 8 6 7 17 17
14 14 11 12 15 8 10 11 14 12 13 23 10 20 18 7 10 11 9 8 13 2 7 15 14 6 11 18 15 12 11 12 9 8 9 10 5 7 7 8 13 14 10
8 17 10 15 10 4 3 16 13 21 19 15 11 1 7 13 6 8 6 5 7 1 3 7 6 23 17 11 12 12 11 12 9 11 11 6 8 7 9 12 14 10 9
7 5 10 1 14 6 6 4 -1 9 10 20 33 2 -10 3 6 3 4 35 31 17 17 20 12 11 13 12 12 11 11 9 11 8 8 8 7 8 11 12 11 9 8
17 14 8 11 20 6 12 11 6 15 7 6 9 17 28 34 30 21 7 16 18 13 10 12 14 11 11 8 8 8 10 11 10 10 7 7 7 9 7 5 7 9 10
15 25 17 13 30 21 13 -1 15 28 25 26 13 6 9 16 10 14 20 17 15 14 14 11 11 10 7 10 13 12 11 11 9 7 7 7 7 8 9 8 9 9 9
8 6 10 16 12 9 19 30 10 8 10 10 10 7 16 11 6 8 14 12 11 9 12 9 4 12 14 13 10 10 8 8 9 9 7 7 8 7 7 9 9 7 7
8 11 17 14 10 15 16 16 29 0 5 14 10 14 13 13 10 8 9 11 12 9 10 14 13 13 10 7 7 9 11 13 9 8 9 7 5 7 9 8 9 9 9
14 12 11 10 9 9 9 11 13 12 19 5 12 14 14 12 11 11 9 9 8 7 7 8 10 7 6 9 12 14 11 9 8 7 4 5 7 10 8 8 10 12 11
16 12 9 7 6 13 18 15 14 13 12 13 12 12 15 16 16 16 16 15 14 15 14 11 11 13 14 13 12 10 10 5 3 4 6 7 10 7 8 10 10 12 9
11 13 12 12 11 2 6 9 8 10 11 11 13 13 11 12 13 14 14 12 11 10 10 10 11 10 9 9 7 3 7 9 4 5 5 10 7 7 11 9 9 10 10
11 6 10 9 8 12 11 11 11 12 10 10 10 9 10 10 10 11 11 13 13 13 11 9 8 5 5 10 10 6 4 4 3 5 8 8 5 11 9 8 8 10 11
15 13 14 12 12 11 7 10 13 13 15 12 9 10 10 9 8 8 9 8 7 6 6 7 8 9 9 9 9 7 6 4 5 7 8 6 10 7 6 10 10 10 11
Height
5789 5797 5803 5808 5813 5816 5819 5823 5827 5830 5834 5838 5841 5844 5846 5847 5848 5849 5851 5852 5853 5853 5854 5854 5853 5852 5851 5849 5848 5846 5845 5842 5838 5836 5835 5832 5828 5825 5821 5818 5814 5810 5807
5782 5788 5795 5800 5805 5808 5812 5816 5820 5823 5827 5831 5834 5836 5838 5839 5841 5842 5844 5844 5845 5846 5846 5846 5845 5845 5843 5842 5840 5838 5836 5834 5830 5828 5826 5826 5823 5818 5813 5808 5806 5803 5799
5775 5780 5785 5790 5796 5801 5804 5808 5812 5816 5819 5823 5825 5828 5830 5833 5834 5835 5836 5836 5837 5838 5838 5838 5838 5837 5836 5834 5832 5830 5828 5826 5823 5819 5817 5816 5815 5811 5807 5803 5798 5794 5791
5764 5770 5776 5781 5786 5792 5797 5800 5804 5808 5811 5814 5817 5820 5822 5824 5825 5827 5827 5828 5829 5829 5830 5830 5830 5829 5828 5827 5824 5822 5819 5817 5815 5812 5809 5806 5804 5801 5800 5796 5790 5786 5783
5754 5759 5765 5771 5776 5781 5786 5790 5794 5798 5802 5805 5808 5812 5814 5816 5818 5819 5819 5820 5821 5821 5821 5821 5820 5819 5818 5817 5815 5813 5811 5809 5807 5804 5801 5798 5794 5791 5789 5787 5784 5780 5776
5745 5751 5756 5761 5767 5773 5776 5779 5782 5787 5791 5795 5798 5801 5804 5807 5808 5810 5811 5811 5812 5812 5812 5811 5810 5809 5808 5806 5805 5803 5801 5799 5797 5794 5791 5788 5786 5783 5779 5777 5775 5772 5769
5736 5742 5748 5754 5759 5763 5766 5769 5773 5776 5780 5784 5787 5790 5793 5796 5798 5799 5800 5801 5801 5801 5801 5801 5800 5799 5798 5796 5794 5792 5791 5789 5787 5784 5782 5779 5777 5774 5771 5768 5766 5764 5761
5729 5735 5740 5745 5750 5756 5759 5762 5765 5767 5769 5772 5775 5778 5782 5785 5787 5788 5790 5791 5791 5791 5791 5791 5790 5789 5787 5786 5784 5782 5780 5778 5776 5774 5772 5769 5767 5763 5761 5759 5757 5755 5751
5722 5726 5731 5736 5741 5745 5748 5752 5755 5757 5760 5763 5765 5767 5770 5772 5774 5776 5778 5779 5780 5780 5781 5780 5779 5778 5777 5776 5774 5772 5770 5768 5766 5764 5762 5759 5757 5754 5752 5750 5747 5744 5742
5715 5719 5722 5726 5730 5734 5737 5740 5743 5747 5751 5754 5756 5757 5759 5761 5763 5764 5766 5768 5769 5769 5770 5770 5769 5768 5767 5766 5765 5763 5760 5758 5756 5754 5752 5750 5748 5746 5744 5742 5739 5735 5731
5706 5709 5713 5716 5719 5722 5725 5729 5732 5735 5739 5742 5744 5747 5748 5750 5751 5753 5755 5757 5758 5758 5759 5759 5759 5758 5757 5756 5754 5752 5749 5748 5747 5745 5744 5742 5740 5738 5735 5732 5729 5725 5721
5699 5701 5703 5706 5709 5712 5715 5718 5721 5724 5727 5731 5734 5736 5738 5740 5741 5743 5745 5746 5747 5748 5748 5749 5749 5747 5746 5744 5743 5741 5740 5738 5737 5736 5735 5733 5730 5728 5725 5723 5720 5715 5711
5690 5691 5693 5696 5699 5702 5705 5708 5712 5714 5716 5719 5722 5725 5727 5730 5732 5733 5734 5735 5736 5737 5738 5738 5738 5737 5736 5734 5733 5731 5730 5729 5727 5727 5725 5723 5721 5719 5716 5713 5709 5705 5702
5681 5682 5684 5686 5689 5692 5695 5698 5701 5704 5707 5710 5711 5713 5716 5719 5721 5722 5724 5725 5725 5726 5727 5727 5727 5726 5726 5724 5722 5721 5720 5720 5719 5718 5716 5714 5712 5710 5707 5704 5699 5696 5693
5672 5673 5675 5678 5680 5683 5686 5689 5692 5695 5697 5700 5701 5702 5704 5707 5710 5712 5713 5715 5715 5716 5716 5717 5716 5716 5715 5713 5712 5711 5710 5710 5709 5708 5707 5705 5704 5701 5699 5695 5691 5688 5685
5666 5666 5668 5671 5673 5676 5678 5680 5681 5683 5685 5687 5690 5692 5693 5695 5697 5700 5702 5703 5704 5705 5705 5706 5705 5704 5703 5703 5702 5702 5701 5701 5700 5699 5698 5697 5695 5693 5690 5686 5683 5680 5677
5659 5660 5663 5664 5666 5668 5669 5670 5672 5673 5674 5676 5679 5681 5682 5684 5686 5688 5690 5691 5692 5694 5694 5694 5694 5694 5694 5693 5693 5693 5693 5692 5692 5691 5689 5689 5687 5684 5681 5677 5675 5672 5669
5651 5652 5654 5656 5657 5659 5660 5662 5664 5664 5665 5667 5669 5670 5672 5673 5676 5677 5679 5680 5682 5683 5684 5685 5685 5685 5685 5684 5685 5685 5685 5684 5684 5682 5681 5680 5679 5676 5673 5670 5668 5664 5660
5643 5645 5647 5648 5648 5650 5651 5653 5654 5655 5657 5658 5660 5662 5664 5665 5666 5668 5670 5671 5672 5674 5675 5675 5676 5676 5676 5676 5676 5676 5676 5676 5676 5675 5673 5672 5669 5668 5665 5662 5660 5656 5652
5636 5639 5640 5640 5641 5642 5643 5644 5644 5647 5649 5650 5652 5654 5655 5656 5658 5660 5661 5662 5664 5665 5666 5666 5667 5668 5668 5668 5669 5669 5668 5668 5667 5667 5665 5664 5661 5659 5657 5654 5651 5647 5644
5630 5632 5633 5634 5635 5636 5636 5637 5638 5640 5642 5644 5645 5646 5647 5649 5650 5652 5653 5655 5656 5657 5657 5658 5659 5659 5660 5661 5660 5660 5660 5660 5658 5658 5657 5655 5653 5651 5648 5645 5642 5638 5634
5623 5624 5626 5627 5628 5630 5631 5632 5633 5634 5635 5636 5637 5638 5639 5640 5642 5644 5645 5646 5647 5648 5648 5649 5650 5652 5652 5652 5652 5652 5652 5652 5651 5650 5649 5647 5645 5642 5639 5636 5632 5628 5625
5616 5618 5620 5621 5623 5624 5625 5625 5627 5628 5628 5629 5630 5631 5632 5633 5634 5635 5636 5637 5638 5639 5640 5642 5642 5643 5644 5644 5644 5644 5644 5643 5643 5642 5640 5638 5636 5634 5630 5626 5623 5619 5615
5611 5613 5614 5615 5617 5618 5619 5620 5621 5622 5622 5623 5624 5625 5626 5627 5627 5628 5629 5630 5631 5632 5633 5634 5635 5636 5637 5636 5636 5636 5636 5635 5635 5633 5631 5629 5627 5624 5621 5617 5613 5609 5605
5606 5607 5609 5610 5611 5612 5614 5614 5615 5616 5616 5617 5618 5619 5620 5621 5622 5622 5623 5624 5625 5626 5626 5627 5628 5628 5629 5628 5627 5628 5628 5627 5626 5625 5622 5620 5618 5614 5611 5607 5603 5599 5595
5601 5602 5603 5604 5605 5607 5608 5608 5608 5609 5610 5611 5612 5613 5614 5615 5615 5616 5617 5617 5618 5618 5619 5620 5620 5621 5621 5620 5619 5619 5619 5618 5617 5615 5613 5611 5608 5605 5601 5597 5593 5589 5586